• In Belgium
  • List of Countries
  • For 7 days
  • Water Temperature
  • Satellite Maps
  • Weather Map
  • Weather Widgets
  • user-avatar
    Login

    Hourly Weather Abanto

    Today, 21 September, Friday

    Time Temperature Precipitation Wind Pressure Humidity
    00:00 +23°C° 0 mm 1 mps 684 mmHg 45%
    01:00 +23°C° 0 mm 1 mps 684 mmHg 47%
    02:00 +22°C° 0 mm 1 mps 684 mmHg 49%
    03:00 +21°C° 0 mm 1 mps 683 mmHg 51%
    04:00 +21°C° 0 mm 1 mps 684 mmHg 52%
    05:00 +20°C° 0 mm 1 mps 684 mmHg 53%
    06:00 +19°C° 0 mm 2 mps 684 mmHg 52%
    07:00 +21°C° 0 mm 2 mps 684 mmHg 46%
    08:00 +24°C° 0 mm 3 mps 685 mmHg 39%
    09:00 +26°C° 0 mm 3 mps 686 mmHg 33%
    10:00 +27°C° 0 mm 3 mps 686 mmHg 31%
    11:00 +28°C° 0 mm 3 mps 686 mmHg 29%
    12:00 +29°C° 0 mm 4 mps 686 mmHg 27%
    13:00 +29°C° 0 mm 4 mps 686 mmHg 27%
    14:00 +30°C° 0 mm 4 mps 686 mmHg 26%
    15:00 +30°C° 0 mm 4 mps 685 mmHg 25%
    16:00 +28°C° 0 mm 4 mps 685 mmHg 30%
    17:00 +27°C° 0 mm 4 mps 685 mmHg 34%
    18:00 +25°C° 0 mm 5 mps 685 mmHg 38%
    19:00 +23°C° 0 mm 4 mps 685 mmHg 45%
    20:00 +22°C° 0 mm 4 mps 686 mmHg 51%
    21:00 +20°C° 0 mm 3 mps 686 mmHg 57%
    22:00 +20°C° 0 mm 3 mps 686 mmHg 60%
    23:00 +19°C° 0 mm 2 mps 686 mmHg 63%

    Tomorrow, 22 September, Saturday

    Time Temperature Precipitation Wind Pressure Humidity
    00:00 +18°C° 0 mm 2 mps 686 mmHg 66%
    01:00 +18°C° 0 mm 2 mps 686 mmHg 67%
    02:00 +19°C° 0 mm 1 mps 686 mmHg 68%
    03:00 +18°C° 0 mm 1 mps 686 mmHg 69%
    04:00 +18°C° 0 mm 1 mps 686 mmHg 69%
    05:00 +18°C° 0 mm 1 mps 686 mmHg 70%
    06:00 +18°C° 0 mm 1 mps 686 mmHg 70%
    07:00 +20°C° 0 mm 1 mps 686 mmHg 61%
    08:00 +22°C° 0 mm 1 mps 687 mmHg 53%
    09:00 +24°C° 0 mm 1 mps 688 mmHg 45%
    10:00 +26°C° 0 mm 2 mps 688 mmHg 39%
    11:00 +28°C° 0 mm 2 mps 688 mmHg 34%
    12:00 +29°C° 0 mm 3 mps 688 mmHg 29%
    13:00 +30°C° 0 mm 3 mps 688 mmHg 27%
    14:00 +30°C° 0 mm 3 mps 688 mmHg 25%
    15:00 +31°C° 0 mm 3 mps 688 mmHg 23%
    16:00 +29°C° 0 mm 3 mps 688 mmHg 26%
    17:00 +28°C° 0 mm 3 mps 687 mmHg 29%
    18:00 +27°C° 0 mm 3 mps 687 mmHg 32%
    19:00 +25°C° 0 mm 2 mps 687 mmHg 36%
    20:00 +24°C° 0 mm 2 mps 688 mmHg 40%
    21:00 +23°C° 0 mm 2 mps 688 mmHg 45%
    22:00 +21°C° 0 mm 2 mps 688 mmHg 48%
    23:00 +21°C° 0 mm 2 mps 688 mmHg 51%

    Day after tomorrow, 23 September, Sunday

    Time Temperature Precipitation Wind Pressure Humidity
    00:00 +20°C° 0 mm 2 mps 688 mmHg 54%
    01:00 +20°C° 0 mm 2 mps 687 mmHg 56%
    02:00 +20°C° 0 mm 1 mps 687 mmHg 59%
    03:00 +20°C° 0 mm 1 mps 687 mmHg 61%
    04:00 +19°C° 0 mm 1 mps 687 mmHg 62%
    05:00 +19°C° 0 mm 1 mps 687 mmHg 63%
    06:00 +18°C° 0 mm 1 mps 686 mmHg 64%
    07:00 +21°C° 0 mm 1 mps 687 mmHg 56%
    08:00 +23°C° 0 mm 1 mps 688 mmHg 47%
    09:00 +26°C° 0 mm 1 mps 689 mmHg 39%
    10:00 +27°C° 0 mm 1 mps 689 mmHg 35%
    11:00 +29°C° 0 mm 1 mps 689 mmHg 30%
    12:00 +30°C° 0 mm 1 mps 689 mmHg 26%
    13:00 +31°C° 0 mm 2 mps 688 mmHg 25%
    14:00 +31°C° 0 mm 2 mps 688 mmHg 24%
    15:00 +32°C° 0 mm 2 mps 688 mmHg 22%
    16:00 +30°C° 0 mm 3 mps 687 mmHg 25%
    17:00 +29°C° 0 mm 3 mps 687 mmHg 28%
    18:00 +27°C° 0 mm 3 mps 687 mmHg 31%
    19:00 +26°C° 0 mm 3 mps 687 mmHg 36%
    20:00 +25°C° 0 mm 3 mps 687 mmHg 40%
    21:00 +24°C° 0 mm 3 mps 688 mmHg 45%
    22:00 +22°C° 0 mm 3 mps 687 mmHg 50%
    23:00 +21°C° 0 mm 3 mps 687 mmHg 54%

    24 September, Monday

    Time Temperature Precipitation Wind Pressure Humidity
    00:00 +20°C° 0 mm 3 mps 687 mmHg 59%
    01:00 +20°C° 0 mm 2 mps 687 mmHg 62%
    02:00 +19°C° 0 mm 2 mps 687 mmHg 65%
    03:00 +18°C° 0 mm 2 mps 686 mmHg 68%
    04:00 +18°C° 0 mm 2 mps 686 mmHg 69%
    05:00 +18°C° 0 mm 2 mps 686 mmHg 70%
    06:00 +17°C° 0 mm 2 mps 686 mmHg 71%
    07:00 +19°C° 0 mm 3 mps 687 mmHg 66%
    08:00 +20°C° 0 mm 3 mps 687 mmHg 60%
    09:00 +22°C° 0 mm 4 mps 688 mmHg 55%
    10:00 +23°C° 0 mm 4 mps 688 mmHg 50%
    11:00 +26°C° 0 mm 4 mps 688 mmHg 45%
    12:00 +27°C° 0 mm 3 mps 688 mmHg 40%
    13:00 +28°C° 0 mm 4 mps 687 mmHg 38%
    14:00 +28°C° 0 mm 4 mps 687 mmHg 37%
    15:00 +29°C° 0 mm 4 mps 686 mmHg 35%
    16:00 +27°C° 0 mm 5 mps 686 mmHg 41%
    17:00 +25°C° 0 mm 5 mps 686 mmHg 47%
    18:00 +23°C° 0 mm 5 mps 686 mmHg 53%
    19:00 +21°C° 0 mm 5 mps 686 mmHg 58%
    20:00 +20°C° 0 mm 4 mps 686 mmHg 64%
    21:00 +19°C° 0 mm 3 mps 686 mmHg 69%
    22:00 +18°C° 0 mm 3 mps 686 mmHg 71%
    23:00 +18°C° 0 mm 2 mps 686 mmHg 73%

    25 September, Tuesday

    Time Temperature Precipitation Wind Pressure Humidity
    00:00 +17°C° 0 mm 2 mps 686 mmHg 75%
    01:00 +17°C° 0 mm 2 mps 685 mmHg 75%
    02:00 +18°C° 0 mm 1 mps 685 mmHg 76%
    03:00 +16°C° 0 mm 1 mps 685 mmHg 77%
    04:00 +16°C° 0 mm 1 mps 685 mmHg 77%
    05:00 +16°C° 0 mm 1 mps 685 mmHg 78%
    06:00 +15°C° 0 mm 1 mps 685 mmHg 79%
    07:00 +18°C° 0 mm 1 mps 686 mmHg 71%
    08:00 +19°C° 0 mm 2 mps 686 mmHg 62%
    09:00 +21°C° 0 mm 2 mps 686 mmHg 54%
    10:00 +24°C° 0 mm 2 mps 687 mmHg 49%
    11:00 +25°C° 0 mm 2 mps 687 mmHg 44%
    12:00 +27°C° 0 mm 2 mps 687 mmHg 39%
    13:00 +27°C° 0 mm 3 mps 687 mmHg 39%
    14:00 +28°C° 0 mm 4 mps 687 mmHg 39%
    15:00 +28°C° 0 mm 5 mps 687 mmHg 38%
    16:00 +26°C° 0 mm 5 mps 687 mmHg 45%
    17:00 +25°C° 0 mm 5 mps 687 mmHg 53%
    18:00 +23°C° 0 mm 5 mps 687 mmHg 60%
    19:00 +22°C° 0 mm 5 mps 687 mmHg 65%
    20:00 +21°C° 0 mm 5 mps 688 mmHg 71%
    21:00 +20°C° 0 mm 4 mps 688 mmHg 76%
    22:00 +19°C° 0 mm 4 mps 688 mmHg 78%
    23:00 +19°C° 0 mm 4 mps 688 mmHg 80%

    26 September, Wednesday

    Time Temperature Precipitation Wind Pressure Humidity
    00:00 +18°C° 0 mm 4 mps 689 mmHg 82%
    01:00 +18°C° 0 mm 4 mps 689 mmHg 83%
    02:00 +18°C° 0 mm 4 mps 689 mmHg 84%
    03:00 +17°C° 0 mm 3 mps 689 mmHg 85%
    04:00 +17°C° 0 mm 3 mps 689 mmHg 85%
    05:00 +17°C° 0 mm 3 mps 689 mmHg 86%
    06:00 +17°C° 0 mm 3 mps 689 mmHg 86%
    07:00 +18°C° 0 mm 3 mps 690 mmHg 79%
    08:00 +19°C° 0 mm 4 mps 690 mmHg 72%
    09:00 +20°C° 0 mm 4 mps 691 mmHg 65%
    10:00 +22°C° 0 mm 4 mps 691 mmHg 59%
    11:00 +23°C° 0 mm 5 mps 691 mmHg 53%
    12:00 +26°C° 0 mm 5 mps 691 mmHg 47%
    13:00 +26°C° 0 mm 5 mps 691 mmHg 46%
    14:00 +26°C° 0 mm 4 mps 691 mmHg 44%
    15:00 +27°C° 0 mm 4 mps 691 mmHg 43%
    16:00 +26°C° 0 mm 4 mps 691 mmHg 47%
    17:00 +25°C° 0 mm 4 mps 691 mmHg 51%
    18:00 +22°C° 0 mm 4 mps 690 mmHg 55%
    19:00 +21°C° 0 mm 3 mps 691 mmHg 60%
    20:00 +20°C° 0 mm 3 mps 691 mmHg 66%
    21:00 +19°C° 0 mm 3 mps 691 mmHg 72%
    22:00 +18°C° 0 mm 2 mps 691 mmHg 75%
    23:00 +18°C° 0 mm 2 mps 691 mmHg 78%
    Show more